Powrót do katalogu

STARLINK-34442

AktywnyŁącznośćVLEO
NORAD 64672·PAYLOAD·🇺🇸 United States

Wystrzelony Jun 28, 2025 z Cape Canaveral Space Force Station

Loading…

Następne Przeloty (najbliższe 24 godziny)

TLE

ŚwieżeSource: CelesTrak SupGP

Epoka: Sep 14, 2026, 23:03 UTC

1 64672C 25139J   26257.96090278  .00029138  00000+0  86052-3 0  2571
2 64672  53.1587 323.5271 0001452 107.6379 265.0521 15.34389415    19

Śledź STARLINK-34442 w czasie rzeczywistym z AllMySat

Download on the App Store